Location: Schoeneck
(50.3760°N, 12.3330°E)
Time: 10:40:13
(UTC+02:00)

ISS - Visible Passes

Search period start: 24 September 2017 00:00
Search period end: 04 October 2017 00:00
Orbit: 401 x 407 km, 51.6° (Epoch: 24 September)

Date Brightness Start Highest point End Pass type
(mag) Time Alt. Az. Time Alt. Az. Time Alt. Az.
26 Sep -2.3 20:27:49 10° SSW 20:29:53 21° SSE 20:29:53 21° SSE visible
27 Sep -1.8 19:36:32 10° S 19:38:17 14° SE 19:40:04 10° ESE visible
27 Sep -2.2 21:11:01 10° SW 21:12:44 28° SW 21:12:44 28° SW visible
28 Sep -3.2 20:18:53 10° SW 20:21:57 38° SSE 20:22:45 32° ESE visible
28 Sep -0.7 21:55:02 10° W 21:55:24 13° W 21:55:24 13° W visible
29 Sep -2.5 19:26:59 10° SSW 19:29:44 25° SE 19:32:30 10° E visible
29 Sep -3.3 21:02:39 10° WSW 21:05:17 54° WSW 21:05:17 54° WSW visible
30 Sep -3.8 20:10:19 10° WSW 20:13:34 65° SSE 20:15:02 29° E visible
30 Sep -1.0 21:46:49 10° W 21:47:42 17° W 21:47:42 17° W visible
01 Oct -3.3 19:18:07 10° SW 19:21:15 44° SSE 19:24:23 10° E visible
01 Oct -3.6 20:54:22 10° W 20:57:23 68° NW 20:57:23 68° NW visible
02 Oct -3.9 20:01:55 10° WSW 20:05:12 87° NNW 20:07:01 25° ENE visible
02 Oct -1.1 21:38:31 10° W 21:39:39 20° WNW 21:39:39 20° WNW visible
03 Oct -3.6 20:46:04 10° W 20:49:14 67° NNW 20:49:14 67° NNW visible
